Wind_Speed
36 36 36 36 37 37 38 38 38 38 39 39 40 41 42 43 45 46 47 49 51 53 56 57 59 61 61 60 60 59 59 59 59 59 59 60 60 61
36 36 36 36 37 38 38 38 39 39 39 40 41 42 43 44 46 47 49 51 53 56 58 60 61 61 60 60 60 60 60 59 60 60 60 61 61 62
36 36 36 37 37 38 38 39 39 39 40 40 42 42 43 45 47 49 51 53 55 58 60 62 62 62 61 62 61 60 60 61 61 61 61 62 62 62
36 37 37 37 37 37 38 39 39 40 41 41 42 43 44 46 48 50 52 55 57 60 62 63 62 62 62 62 61 62 62 62 62 62 62 62 61 59
37 36 36 37 37 37 38 38 39 41 41 42 42 44 45 47 49 51 54 57 60 62 63 63 63 62 62 62 62 62 62 62 62 61 60 59 57 56
37 36 36 36 37 38 37 37 39 40 41 42 43 45 47 49 51 53 56 59 61 62 63 63 62 62 63 63 63 62 62 61 60 59 57 56 54 53
36 35 35 36 36 37 37 37 39 40 41 43 44 46 48 50 52 55 57 60 61 62 62 62 62 63 63 63 62 61 60 59 58 56 54 53 52 52
35 35 35 35 36 37 37 37 38 40 42 43 45 47 49 52 54 57 58 60 61 61 61 61 62 62 61 60 59 59 58 57 55 53 52 52 51 50
34 35 35 36 36 36 36 37 39 41 42 44 46 48 51 53 56 58 59 61 61 61 60 60 61 61 59 58 57 57 56 55 53 52 51 50 49 47
34 34 34 35 36 36 37 38 40 42 43 45 48 50 52 55 57 59 60 60 60 60 60 60 60 58 57 56 56 55 54 53 51 50 49 48 46 43
34 34 34 35 35 36 37 39 41 42 44 46 49 51 54 56 58 58 58 58 58 59 60 59 58 56 55 54 54 53 52 50 49 48 46 44 42 39
33 33 33 34 35 36 38 39 41 43 45 47 50 52 54 57 58 58 57 57 58 58 58 57 56 55 54 53 52 51 50 49 47 45 43 41 39 36
32 33 34 34 35 36 37 39 41 43 45 47 50 52 55 56 57 56 55 56 57 57 56 55 54 53 52 51 50 49 49 47 45 43 40 38 36 33
32 33 33 34 35 36 37 39 42 43 45 48 50 53 55 55 55 55 55 56 56 56 56 54 53 52 51 50 48 47 46 44 41 39 37 35 33 31
32 32 33 34 35 36 37 39 41 44 46 48 51 53 54 53 54 54 55 55 55 55 55 53 52 51 50 48 46 44 42 40 37 35 34 32 30 29
31 31 32 34 35 36 38 39 41 44 46 49 50 52 52 53 53 53 54 54 55 55 54 52 51 49 47 45 43 41 38 36 35 34 32 30 29 27
31 31 33 33 35 36 37 39 42 44 46 48 50 51 52 52 52 52 52 53 54 53 53 51 49 47 44 42 40 38 36 35 34 32 31 29 27 25
30 31 31 33 34 35 37 40 42 44 46 48 49 50 51 51 50 51 52 53 53 52 50 48 46 44 42 40 38 36 34 34 33 31 29 27 25 23
29 29 30 32 33 35 37 39 41 43 45 47 48 50 50 50 50 51 52 53 52 50 48 45 42 40 38 37 36 34 33 32 30 28 26 24 23 22
27 28 30 31 33 34 36 38 40 42 45 47 48 49 50 50 50 51 51 51 50 47 45 42 39 37 36 35 33 32 31 29 27 25 24 23 22 21
26 28 29 30 32 34 35 38 40 43 45 47 48 49 49 49 49 50 50 49 47 44 41 38 36 36 35 33 32 30 28 27 25 23 22 21 20 19
26 27 28 30 31 33 35 38 41 43 46 47 48 48 48 48 48 49 48 46 44 41 38 36 35 35 33 32 30 28 26 25 23 21 20 20 19 17
25 26 28 29 31 33 36 38 41 44 46 47 48 48 48 47 47 47 45 43 41 39 37 36 34 33 32 30 28 26 24 22 20 19 19 18 17 15
Wind_Direction
282 285 288 289 292 294 296 298 299 300 301 302 303 304 305 305 306 308 308 309 309 310 310 310 309 309 309 308 307 305 304 303 301 300 299 297 295 293
281 284 287 289 291 293 296 297 298 299 300 302 303 304 305 305 307 308 308 309 310 310 310 310 310 310 309 308 307 306 306 305 303 302 300 299 297 295
281 284 286 288 291 293 295 297 297 299 301 302 303 305 305 306 307 308 309 310 311 311 311 310 310 309 308 308 308 307 307 306 305 304 303 301 299 298
280 283 285 287 290 292 294 295 296 298 300 301 303 305 306 307 307 308 309 310 310 311 312 311 310 309 309 309 309 308 308 307 306 305 304 303 301 300
279 282 284 287 289 292 294 295 296 298 300 301 304 305 306 307 308 309 309 310 311 312 312 311 310 309 309 310 310 309 308 308 308 307 306 304 303 302
279 281 283 286 289 291 293 294 295 297 300 302 303 305 306 308 308 309 310 311 312 313 312 311 311 310 310 310 310 310 310 310 309 308 307 306 305 304
278 280 283 286 288 290 292 294 295 297 300 302 304 306 307 308 309 310 311 312 313 314 313 313 312 311 310 311 311 311 311 311 311 310 309 308 308 307
278 281 283 286 288 290 291 293 294 298 300 302 305 306 307 309 310 311 312 313 313 314 314 313 313 312 312 312 312 312 312 312 312 311 311 310 310 309
278 281 283 285 288 290 291 292 295 299 301 303 305 307 308 310 311 312 313 314 314 315 315 314 314 314 314 314 313 314 314 314 313 313 312 312 312 311
277 280 283 286 288 288 290 294 297 300 303 304 306 309 310 312 313 313 314 315 315 316 316 316 315 315 315 315 315 316 315 315 315 314 314 314 314 313
277 280 283 286 288 289 292 296 299 302 304 306 308 311 312 313 314 315 315 316 316 317 317 317 316 316 316 316 317 317 317 317 317 317 317 316 315 315
277 280 283 286 288 291 294 298 301 303 306 308 310 312 314 315 315 315 316 316 317 317 318 318 317 316 316 317 318 318 318 318 318 318 318 317 317 316
276 280 283 286 289 292 296 300 303 305 307 309 312 313 315 315 316 316 317 318 318 319 319 319 318 318 318 319 319 319 320 320 320 319 319 319 318 317
276 281 284 287 291 295 298 301 304 307 309 311 313 314 316 317 317 317 318 319 320 320 320 320 319 319 320 320 321 321 321 322 322 322 322 321 320 320
277 281 285 289 293 297 300 303 306 308 311 313 314 316 318 318 318 318 319 320 321 321 321 321 320 320 321 321 322 323 323 323 324 324 324 323 322 322
278 282 287 291 294 298 301 304 307 310 313 314 316 318 319 318 319 320 321 322 322 322 322 322 322 322 322 323 324 324 324 324 325 325 325 323 323 323
280 284 288 292 296 300 303 306 309 312 315 317 318 319 320 320 321 322 322 323 322 322 322 323 323 323 324 325 325 326 325 326 326 326 325 325 325 325
281 286 290 294 298 302 305 308 311 314 317 319 320 321 322 322 322 323 323 323 323 323 323 323 324 324 325 326 326 326 326 326 327 328 327 327 328 328
283 288 293 297 300 303 307 310 313 316 319 321 321 322 323 323 323 323 323 324 324 324 324 324 324 324 325 326 327 328 328 328 329 330 330 330 331 330
285 290 295 299 302 306 309 313 316 319 321 322 323 323 324 324 324 324 325 326 326 326 326 326 326 326 326 327 327 328 330 330 331 332 333 334 335 334
288 293 297 301 305 308 311 315 318 320 322 324 324 324 325 325 325 326 327 327 328 328 328 328 328 328 327 328 328 330 331 332 332 334 336 337 338 339
291 295 299 303 307 310 313 317 320 322 324 325 325 325 325 325 326 327 328 328 329 330 329 329 328 328 328 329 329 330 332 333 334 336 338 339 341 344
292 297 302 305 309 312 315 318 321 323 325 326 325 326 326 326 327 328 329 329 330 330 329 329 329 329 329 329 330 331 332 334 335 337 340 342 344 348
Height
5751 5749 5747 5745 5742 5740 5737 5733 5730 5726 5722 5717 5712 5707 5701 5696 5691 5685 5679 5672 5665 5658 5650 5642 5634 5625 5616 5608 5600 5592 5585 5578 5571 5565 5559 5553 5547 5542
5743 5741 5739 5737 5734 5731 5728 5725 5721 5717 5713 5709 5704 5699 5693 5688 5682 5676 5669 5662 5655 5647 5639 5630 5621 5612 5603 5594 5586 5578 5570 5563 5556 5548 5542 5535 5529 5523
5735 5733 5731 5729 5726 5723 5720 5716 5713 5708 5704 5700 5695 5690 5684 5678 5672 5666 5659 5651 5643 5635 5626 5617 5607 5598 5589 5580 5572 5564 5556 5548 5540 5532 5525 5517 5510 5504
5726 5725 5723 5720 5718 5715 5711 5708 5704 5700 5696 5692 5686 5681 5675 5669 5663 5656 5649 5641 5632 5623 5613 5603 5594 5584 5575 5566 5557 5549 5540 5532 5524 5515 5508 5500 5493 5486
5718 5717 5715 5712 5710 5706 5703 5699 5695 5691 5687 5683 5678 5672 5666 5660 5653 5646 5638 5629 5620 5610 5600 5590 5580 5570 5561 5552 5543 5534 5525 5516 5507 5499 5491 5483 5476 5469
5710 5708 5706 5704 5701 5698 5695 5691 5687 5683 5678 5673 5668 5663 5657 5650 5643 5635 5627 5617 5608 5597 5586 5576 5567 5557 5548 5538 5529 5520 5510 5501 5492 5483 5475 5467 5461 5454
5701 5700 5698 5695 5693 5690 5686 5683 5679 5674 5669 5665 5659 5653 5647 5640 5632 5624 5615 5606 5595 5584 5574 5563 5554 5544 5534 5524 5515 5505 5496 5487 5477 5469 5461 5453 5446 5439
5693 5691 5689 5687 5684 5681 5678 5674 5670 5666 5661 5656 5650 5644 5637 5629 5621 5612 5603 5595 5585 5575 5562 5552 5541 5531 5521 5511 5501 5492 5483 5474 5464 5456 5448 5441 5433 5426
5684 5683 5681 5678 5676 5672 5669 5665 5661 5656 5652 5647 5640 5633 5626 5619 5611 5601 5590 5580 5570 5561 5550 5540 5529 5518 5508 5498 5488 5479 5470 5461 5452 5444 5436 5428 5421 5413
5676 5674 5672 5670 5667 5664 5660 5656 5652 5647 5642 5637 5631 5623 5615 5607 5598 5588 5578 5568 5557 5547 5537 5528 5517 5507 5496 5486 5476 5467 5458 5450 5441 5432 5425 5417 5410 5403
5668 5666 5664 5662 5659 5655 5652 5648 5644 5638 5632 5626 5620 5612 5604 5595 5585 5576 5566 5556 5546 5535 5525 5516 5506 5496 5487 5476 5465 5456 5447 5439 5430 5422 5414 5407 5400 5394
5659 5658 5656 5653 5650 5647 5643 5639 5635 5629 5623 5617 5609 5601 5592 5583 5573 5564 5554 5544 5535 5525 5514 5504 5494 5485 5477 5467 5456 5446 5437 5429 5421 5413 5406 5398 5392 5386
5651 5649 5647 5645 5642 5638 5634 5630 5625 5620 5614 5607 5599 5591 5581 5572 5562 5552 5543 5533 5523 5513 5504 5494 5484 5474 5465 5457 5448 5437 5428 5420 5412 5404 5397 5390 5384 5379
5643 5641 5639 5636 5633 5630 5626 5622 5616 5611 5604 5597 5589 5580 5571 5561 5551 5541 5532 5523 5513 5503 5493 5483 5474 5464 5455 5447 5438 5429 5419 5411 5404 5397 5390 5384 5378 5372
5635 5633 5631 5628 5625 5621 5617 5613 5607 5601 5594 5587 5578 5570 5560 5551 5541 5531 5521 5512 5502 5492 5482 5473 5463 5454 5445 5437 5429 5421 5413 5405 5397 5391 5384 5378 5373 5367
5626 5625 5622 5620 5617 5613 5609 5604 5598 5592 5585 5577 5568 5559 5550 5541 5531 5521 5512 5502 5492 5481 5472 5463 5454 5445 5437 5428 5420 5413 5405 5399 5392 5385 5379 5373 5368 5362
5618 5617 5615 5612 5609 5605 5600 5595 5589 5582 5575 5567 5559 5550 5540 5531 5521 5512 5503 5493 5483 5473 5462 5453 5444 5436 5428 5421 5414 5406 5399 5392 5386 5380 5374 5368 5363 5358
5611 5609 5607 5604 5601 5596 5592 5586 5580 5573 5566 5558 5549 5540 5531 5522 5512 5503 5494 5484 5474 5464 5455 5446 5437 5429 5421 5414 5408 5401 5394 5387 5381 5375 5369 5363 5359 5354
5603 5601 5599 5596 5592 5588 5583 5578 5571 5564 5557 5549 5540 5532 5522 5513 5504 5494 5484 5474 5465 5455 5447 5439 5431 5423 5416 5409 5402 5396 5389 5382 5376 5371 5365 5360 5355 5350
5596 5594 5591 5588 5584 5580 5575 5569 5563 5556 5549 5541 5532 5523 5514 5504 5495 5486 5476 5466 5456 5447 5439 5431 5424 5417 5411 5404 5397 5391 5385 5379 5373 5367 5362 5357 5352 5347
5588 5586 5583 5580 5576 5572 5567 5561 5555 5548 5540 5532 5523 5514 5505 5496 5487 5477 5467 5458 5449 5440 5432 5425 5419 5412 5406 5399 5393 5387 5381 5375 5370 5364 5359 5355 5350 5346
5581 5579 5576 5573 5569 5564 5559 5553 5547 5540 5532 5524 5515 5506 5497 5488 5479 5469 5460 5451 5442 5434 5427 5420 5414 5407 5401 5395 5388 5383 5377 5372 5367 5362 5357 5353 5348 5344
5574 5571 5569 5565 5561 5557 5551 5546 5539 5532 5524 5516 5507 5498 5489 5480 5471 5462 5453 5445 5437 5429 5422 5415 5409 5403 5397 5391 5385 5380 5374 5370 5365 5361 5356 5352 5347 5344